logo meteosicilia

Diretta Meteo Stockholm-Bromma, Sveziadomenica 10 maggio ore 21:20

Mappa
Sereno 10 °C Sereno 24 Ore: T.min 1 T.max 15
Ponente Nord Km/h 5.5 Punto di rugiada: 4 °C Umidità: 66% Visibilità: 10 Km
Il sole sorge alle: 04:23 Il sole tramonta alle: 21:05
10 Maggio 2026 21:20 tempo osservato: Sereno Sereno 10 66 1006 vento: Nord N 5.5
10 Maggio 2026 20:50 tempo osservato: Sereno Sereno 10 61 1006 vento: Nord S/SE 11.1
10 Maggio 2026 20:20 tempo osservato: Sereno Sereno 10 57 1007 vento: Nord S/SE 14.8
10 Maggio 2026 19:50 tempo osservato: Sereno Sereno 11 50 1007 vento: Nord S/SE 14.8
10 Maggio 2026 19:20 tempo osservato: Sereno Sereno 12 43 1007 vento: Nord SE 16.7
10 Maggio 2026 18:50 tempo osservato: Sereno Sereno 12 37 1007 vento: Nord S/SE 16.7
10 Maggio 2026 18:20 tempo osservato: Sereno Sereno 13 30 1008 vento: Nord S 20.3
10 Maggio 2026 17:50 tempo osservato: Sereno Sereno 13 30 1008 vento: Nord S 22.2
10 Maggio 2026 17:20 tempo osservato: Sereno Sereno 14 30 1008 vento: Nord S 22.2
10 Maggio 2026 16:50 tempo osservato: Sereno Sereno 14 32 1009 vento: Nord S 22.2
10 Maggio 2026 16:20 tempo osservato: Sereno Sereno 15 30 1009 vento: Nord S 20.3
10 Maggio 2026 15:50 tempo osservato: Sereno Sereno 15 30 1009 vento: Nord S 20.3
10 Maggio 2026 15:20 tempo osservato: Sereno Sereno 15 30 1010 vento: Nord S 20.3
10 Maggio 2026 14:50 tempo osservato: Sereno Sereno 15 33 1010 vento: Nord S/SO 20.3
10 Maggio 2026 14:20 tempo osservato: Sereno Sereno 15 33 1011 vento: Nord S/SE 22.2
10 Maggio 2026 13:50 tempo osservato: Sereno Sereno 15 33 1011 vento: Nord SE 24
10 Maggio 2026 13:20 tempo osservato: Sereno Sereno 15 30 1012 vento: Nord S 18.5
10 Maggio 2026 12:50 tempo osservato: Sereno Sereno 15 30 1012 vento: Nord S/SE 20.3
10 Maggio 2026 12:20 tempo osservato: Sereno Sereno 15 30 1012 vento: Nord SE 20.3
10 Maggio 2026 11:50 tempo osservato: Sereno Sereno 14 30 1013 vento: Nord S/SE 20.3
10 Maggio 2026 11:20 tempo osservato: Sereno Sereno 14 30 1013 vento: Nord SE 18.5
10 Maggio 2026 10:50 tempo osservato: Sereno Sereno 14 28 1013 vento: Nord S/SE 18.5
10 Maggio 2026 10:20 tempo osservato: Sereno Sereno 13 35 1014 vento: Nord S/SE 18.5
10 Maggio 2026 09:50 tempo osservato: Sereno Sereno 13 37 1014 vento: Nord SE 16.7
10 Maggio 2026 09:20 tempo osservato: Sereno Sereno 12 40 1015 vento: Nord SE 16.7
10 Maggio 2026 08:50 tempo osservato: Sereno Sereno 12 43 1015 vento: Nord SE 13
10 Maggio 2026 08:20 tempo osservato: Sereno Sereno 11 50 1015 vento: Nord SE 14.8
10 Maggio 2026 07:50 tempo osservato: Sereno Sereno 10 53 1016 vento: Nord E/SE 13
10 Maggio 2026 07:20 tempo osservato: Sereno Sereno 9 57 1016 vento: Nord E/SE 11.1
10 Maggio 2026 06:50 tempo osservato: Poco Nuvoloso Poco Nuvoloso 8 61 1016 vento: Nord SE 7.4
10 Maggio 2026 06:20 tempo osservato: Sereno Sereno 7 65 1017 vento: Nord E/SE 7.4
10 Maggio 2026 05:50 tempo osservato: Sereno Sereno 5 75 1017 vento: Nord N 5.5
10 Maggio 2026 05:20 tempo osservato: Sereno Sereno 3 86 1017 vento: Nord N 3.7
10 Maggio 2026 04:50 tempo osservato: Sereno Sereno 2 86 1018 vento: Nord N 3.7
10 Maggio 2026 04:20 tempo osservato: Sereno Sereno 1 93 1018 vento: Nord N 0
10 Maggio 2026 03:50 tempo osservato: Sereno Sereno 2 86 1018 vento: Nord N 0
10 Maggio 2026 03:20 tempo osservato: Sereno Sereno 3 86 1019 vento: Nord N 0
10 Maggio 2026 02:50 tempo osservato: Sereno Sereno 3 80 1019 vento: Nord N 3.7
10 Maggio 2026 02:20 tempo osservato: Sereno Sereno 4 80 1019 vento: Nord N 5.5
10 Maggio 2026 01:50 tempo osservato: Sereno Sereno 4 80 1020 vento: Nord N 5.5
10 Maggio 2026 01:20 tempo osservato: Sereno Sereno 5 75 1020 vento: Nord N 5.5
10 Maggio 2026 00:50 tempo osservato: Sereno Sereno 5 75 1020 vento: Nord N 3.7
10 Maggio 2026 00:20 tempo osservato: Sereno Sereno 6 75 1021 vento: Nord N 5.5
9 Maggio 2026 23:50 tempo osservato: Sereno Sereno 6 70 1021 vento: Nord E/SE 7.4
9 Maggio 2026 23:20 tempo osservato: Sereno Sereno 6 70 1021 vento: Nord N 5.5
9 Maggio 2026 22:50 tempo osservato: Sereno Sereno 6 65 1021 vento: Nord N 5.5
9 Maggio 2026 22:20 tempo osservato: Sereno Sereno 7 60 1022 vento: Nord N 5.5
9 Maggio 2026 21:50 tempo osservato: Sereno Sereno 7 60 1022 vento: Nord SE 7.4